Theta_e
289 287 285 285 284 283 282 282 282 283 282 283 283 283 283 282 279 276 276 277 277 278 278 278 279 279 278 279 278 279 278 280 282 279 278 276 275 281 284 287 289 291 291 290 290 289 289 289 289 289 289 290 290 290 291 291 291 291 291 292 292 292 292 293 293 293 292 293 293 294 293 294 295 295
287 286 284 283 283 282 281 282 282 282 283 282 282 283 282 283 282 279 278 278 279 277 278 278 278 278 279 279 279 278 278 281 282 278 277 276 276 282 283 286 288 289 290 290 290 290 289 289 289 289 289 290 290 290 290 290 290 291 291 292 291 292 292 292 292 291 292 292 292 293 293 293 294 294
285 284 283 282 282 281 281 281 280 281 282 282 282 282 281 281 282 280 279 276 277 279 278 279 279 279 279 279 278 278 278 280 282 278 276 276 280 282 282 284 286 287 287 288 288 289 289 289 289 288 289 289 290 289 289 289 290 290 290 290 291 291 291 291 290 290 291 291 291 292 293 293 293 294
285 284 283 282 282 280 280 279 280 280 281 281 281 281 280 279 279 281 279 279 277 279 279 280 280 280 279 279 277 277 277 279 283 278 277 277 281 281 279 283 284 285 286 287 288 288 289 289 289 288 289 289 289 288 288 289 289 289 289 289 290 290 289 288 288 289 290 290 290 291 292 292 292 292
285 284 284 282 281 280 280 280 279 279 280 280 281 280 280 279 278 280 279 278 275 276 276 279 279 279 278 278 278 277 276 276 277 281 277 277 277 277 277 277 281 283 284 285 286 287 288 288 288 289 288 288 288 287 288 289 288 288 288 288 288 288 288 288 288 288 288 289 290 290 291 291 291 291
284 284 284 282 280 279 281 280 280 280 279 279 280 279 279 280 278 278 279 276 278 278 276 276 277 277 278 277 278 276 276 275 276 276 277 277 276 276 276 276 276 282 283 285 285 286 287 288 289 289 288 288 287 288 288 287 287 287 287 287 286 286 286 286 287 287 288 289 289 290 290 290 291 291
284 283 284 283 280 280 280 279 280 279 279 279 280 279 279 280 279 278 278 278 278 279 277 277 276 277 277 277 277 276 276 275 275 275 275 276 277 277 276 276 276 281 284 285 286 286 287 288 288 288 287 287 287 287 287 287 286 286 286 286 285 284 284 285 286 287 288 288 289 289 289 289 290 290
284 283 283 282 280 280 280 279 279 278 279 279 279 279 278 279 279 278 277 279 277 278 277 276 277 277 277 277 275 276 275 274 274 275 275 275 275 275 277 276 276 279 284 285 285 286 286 287 287 287 287 286 286 286 286 286 286 285 285 285 284 284 284 284 285 286 287 287 288 288 288 289 289 289
284 284 284 282 280 280 280 279 278 278 278 278 278 278 278 278 278 278 277 277 277 278 278 276 276 276 277 277 276 275 274 274 274 273 274 274 275 275 275 276 277 280 283 284 284 285 285 286 286 286 286 285 285 285 285 285 285 284 284 283 283 283 283 284 285 286 286 286 286 287 288 288 288 289
285 284 284 282 281 280 280 279 279 278 278 278 278 278 278 277 277 277 276 277 277 277 277 276 275 275 275 275 275 275 275 274 273 273 273 273 274 274 274 275 276 276 276 276 277 281 283 284 284 284 284 284 284 285 285 284 284 283 282 282 282 282 283 284 285 285 285 285 285 285 286 287 288 288
285 285 284 282 281 281 281 280 279 279 278 278 278 279 278 277 277 277 277 277 277 277 276 275 275 275 275 276 275 274 275 274 274 273 272 273 274 274 274 274 275 276 276 278 281 280 279 280 280 281 282 284 284 284 283 282 282 281 281 281 281 282 284 285 285 285 285 285 285 285 284 285 286 287
284 284 284 282 281 281 281 281 280 279 279 279 278 278 278 277 277 277 277 276 277 276 276 276 274 274 274 274 273 273 273 272 272 273 273 273 272 272 273 274 274 274 275 273 274 278 280 281 281 282 281 281 281 281 280 280 280 280 280 280 282 283 284 284 284 284 284 284 284 284 284 284 285 286
284 283 283 282 282 282 282 283 283 282 282 279 279 278 278 278 278 277 277 277 277 276 276 275 274 274 274 274 274 273 272 272 274 273 273 273 273 272 272 274 274 274 273 273 273 273 273 273 273 273 272 274 276 276 278 278 278 278 279 281 282 283 283 284 284 284 284 284 283 283 284 284 284 284
283 283 282 282 282 282 283 283 284 284 284 284 282 279 278 278 278 278 277 277 277 276 275 276 275 274 274 274 274 274 274 274 274 272 272 272 272 271 272 272 273 274 273 272 271 272 273 272 271 271 271 272 275 275 274 273 275 278 280 282 282 283 283 283 283 283 283 283 283 283 283 283 283 283
283 282 281 281 281 282 282 282 284 285 285 285 285 283 282 282 280 278 277 277 277 276 276 276 275 275 275 275 275 274 274 274 274 274 273 273 272 272 270 271 271 273 272 271 269 269 271 271 270 270 271 272 272 273 273 277 278 279 281 281 282 282 282 282 282 282 282 282 282 282 282 283 283 283
283 282 281 280 281 280 281 281 282 284 285 285 285 286 285 285 285 284 280 278 277 276 276 275 275 275 275 276 275 274 274 274 273 273 273 273 272 272 271 271 270 272 273 270 269 269 270 270 271 270 271 272 273 272 276 278 279 280 281 281 282 282 282 282 282 282 281 281 281 282 282 282 282 282
283 282 281 280 280 280 282 281 281 281 282 284 285 284 284 284 285 285 286 284 280 279 277 277 276 276 276 275 275 276 274 276 273 273 273 272 272 272 272 272 270 271 272 270 268 267 269 270 270 270 271 272 271 272 276 278 279 280 280 281 281 281 281 281 281 281 281 281 281 281 281 281 281 281
282 282 281 280 279 279 280 280 280 280 281 281 282 281 281 280 282 285 286 285 284 281 279 278 277 278 277 276 277 276 278 275 274 273 272 272 271 271 272 271 271 270 272 271 268 266 267 270 270 269 270 271 271 271 274 278 279 280 280 280 280 280 280 280 280 280 280 280 280 281 281 281 281 281
282 282 281 281 280 279 279 280 280 280 280 281 281 280 280 279 280 281 282 282 281 280 279 279 279 278 278 278 276 275 277 277 276 275 274 273 273 270 270 270 269 270 271 271 270 265 265 268 268 269 269 269 270 270 274 277 278 279 279 279 279 279 279 279 279 279 279 280 280 280 280 280 280 280
282 281 281 280 280 279 279 281 284 283 281 281 280 279 279 279 279 280 282 284 284 281 279 279 278 277 277 280 277 277 277 277 275 272 269 268 267 267 266 269 264 266 270 271 271 264 262 267 269 269 269 269 268 269 269 275 277 278 278 278 278 278 278 279 279 279 279 279 279 279 279 279 279 279
281 281 281 280 280 280 279 282 285 285 284 280 280 279 279 279 279 279 280 283 285 285 284 283 282 282 282 283 283 283 283 278 275 270 268 270 266 266 266 266 263 266 268 270 271 267 265 267 268 267 267 268 268 268 269 269 274 276 276 277 277 277 278 278 278 278 278 278 278 278 278 279 278 278
281 281 282 281 280 280 279 284 286 286 283 280 280 279 279 278 278 278 279 279 282 285 285 285 284 283 283 283 284 284 283 283 279 272 272 269 268 269 267 267 265 265 268 271 273 269 267 265 266 265 264 265 265 268 269 269 270 274 274 274 275 276 277 277 277 277 277 277 277 277 278 278 277 274
280 280 281 282 281 280 281 285 286 286 283 280 280 279 279 278 277 278 279 278 277 277 278 280 281 281 283 282 281 281 284 284 281 276 275 271 270 270 268 269 269 270 270 272 274 268 265 266 267 267 264 264 265 267 267 269 268 268 268 269 269 274 275 275 275 275 275 276 276 276 277 277 276 273
280 279 279 282 284 284 284 286 287 286 284 280 280 280 279 278 278 280 278 278 278 277 277 277 278 278 277 276 275 276 278 279 277 277 276 274 273 272 272 272 273 271 271 273 275 272 270 271 268 271 270 267 264 265 267 268 269 268 267 266 266 270 272 272 271 273 273 274 274 275 276 275 275 273
279 279 279 280 283 284 285 286 287 286 285 283 280 280 279 280 281 279 277 277 279 276 275 275 274 275 273 273 272 273 273 275 274 275 277 275 275 274 274 274 273 273 274 273 277 272 269 269 268 268 267 267 267 265 267 267 269 268 268 267 266 266 267 267 268 267 270 272 272 273 273 275 276 274
279 279 279 279 283 285 285 287 287 286 285 284 280 280 283 283 283 279 277 276 276 275 274 273 272 271 270 271 270 270 271 272 272 271 273 275 275 276 275 274 273 272 273 274 279 272 269 267 269 267 266 264 266 268 266 266 267 267 267 266 266 266 266 266 266 266 266 266 266 268 271 275 274 274
279 279 279 280 283 285 286 286 287 287 286 285 282 283 284 284 283 280 275 274 275 273 272 272 271 271 271 271 271 271 271 272 272 272 272 272 273 274 274 275 275 274 272 272 275 273 272 269 270 269 268 267 266 266 266 263 263 265 264 265 265 266 266 265 265 265 266 265 266 271 271 271 272 272
280 279 279 280 284 286 286 286 286 287 286 285 286 285 285 284 283 277 274 273 273 272 271 271 271 271 271 271 271 272 273 273 274 274 273 273 273 272 271 272 272 271 272 272 274 275 273 272 269 270 270 268 266 265 264 268 266 264 261 264 265 265 265 265 264 265 265 265 265 265 265 265 266 267
281 281 282 283 284 285 285 286 286 286 286 286 286 286 285 283 281 276 274 273 273 272 271 272 272 272 272 272 273 274 274 275 275 274 274 274 274 273 273 272 272 272 271 271 273 274 274 272 271 270 269 268 267 266 266 265 264 263 264 262 260 261 264 265 265 264 264 265 264 265 264 265 265 266
283 283 283 284 285 285 285 284 284 283 284 285 285 285 284 282 280 278 275 274 273 272 273 273 272 273 274 274 275 275 275 274 274 274 274 273 273 272 271 269 269 267 266 266 268 271 273 272 271 269 268 267 267 265 265 264 263 263 262 261 262 262 263 263 263 263 264 263 264 264 265 265 265 266
282 282 282 282 283 283 284 284 284 283 283 283 284 284 283 282 281 279 277 275 274 274 274 274 274 275 275 275 275 274 274 274 274 274 273 273 272 271 270 270 269 267 266 264 263 265 266 268 269 269 266 266 266 266 265 265 263 261 261 261 260 258 258 262 263 263 262 263 263 264 264 265 265 266
282 282 282 283 282 282 282 282 282 282 281 281 282 282 282 281 280 280 279 278 276 276 276 276 276 275 275 274 275 275 274 274 274 274 273 273 272 271 269 268 268 268 267 264 260 261 266 264 265 267 268 267 264 264 264 262 261 259 260 260 260 261 261 260 261 261 263 262 261 261 262 263 263 264
282 281 281 280 280 280 279 280 279 280 279 279 280 280 280 279 279 279 278 277 277 277 277 276 276 275 275 275 275 274 273 273 273 273 272 272 271 270 269 268 268 266 265 265 261 259 260 261 262 264 265 265 267 265 262 260 260 259 259 259 258 259 259 261 261 261 262 261 260 260 260 262 263 264
280 280 280 279 279 279 278 278 278 278 278 278 278 278 280 278 278 278 278 278 278 278 277 277 276 275 274 274 273 273 272 272 271 271 272 270 270 268 268 267 267 267 264 264 261 260 258 257 257 257 258 258 257 261 262 260 260 259 259 258 258 258 260 258 261 261 260 260 260 259 259 259 261 263
280 279 279 279 279 278 278 278 278 278 277 277 277 277 278 278 278 278 278 278 278 277 277 277 276 276 274 274 273 271 271 270 270 269 270 269 269 268 267 266 265 263 261 259 258 258 256 257 256 255 255 252 253 253 261 262 257 260 258 259 259 258 258 259 259 259 258 259 258 258 257 258 259 262
279 279 279 278 278 278 278 278 278 277 277 277 277 277 277 277 277 277 277 277 276 276 276 275 275 274 274 273 271 271 270 270 268 268 267 267 266 266 264 265 265 264 261 260 260 257 256 255 257 258 258 257 255 257 256 266 266 259 257 256 254 255 256 257 257 257 257 257 258 257 257 257 259 261
278 279 279 278 278 278 277 277 277 277 277 277 277 277 277 276 277 277 277 278 276 275 275 274 274 273 272 271 270 269 269 269 267 267 266 267 266 265 264 264 264 263 261 262 259 258 258 258 258 260 259 258 258 258 258 253 263 269 261 259 258 257 257 256 255 256 258 258 258 258 258 259 259 261
278 278 278 278 277 277 277 277 277 276 276 277 277 277 277 277 277 277 277 276 275 275 275 275 273 272 270 268 267 267 268 268 268 267 266 266 265 264 264 264 263 262 261 261 259 259 257 258 259 260 260 259 259 258 256 256 256 261 269 264 260 257 257 257 256 256 257 258 258 260 261 260 261 262
279 278 277 277 277 277 277 277 276 276 276 276 276 276 276 276 276 276 275 275 274 274 274 274 272 270 268 266 266 268 268 267 267 267 266 265 265 264 263 262 261 260 259 259 257 256 255 256 258 257 258 259 259 259 259 256 257 260 263 269 264 261 258 258 258 259 260 260 261 263 263 264 265 268
279 278 277 277 277 276 276 276 275 275 275 275 275 276 275 275 275 274 274 274 273 272 272 272 271 269 268 267 265 263 265 266 267 267 266 265 264 263 261 260 261 261 260 260 257 255 254 256 257 258 258 260 261 259 255 254 252 251 255 261 267 265 261 260 261 261 261 262 262 261 261 262 261 262
278 276 276 276 276 275 275 275 275 274 274 274 274 274 274 274 273 273 273 273 272 271 270 269 269 269 268 267 265 265 265 264 264 263 263 263 263 262 262 263 262 263 262 261 260 257 257 258 260 264 262 256 253 255 255 254 256 254 254 258 264 266 267 267 264 262 261 262 262 261 260 260 261 261
277 276 275 275 275 274 274 274 274 273 273 273 273 273 273 273 272 273 273 273 271 270 270 270 269 268 268 266 265 264 265 264 263 263 262 262 262 263 264 264 263 263 262 261 261 260 258 256 259 259 257 255 255 255 256 256 255 255 253 253 256 262 265 265 267 267 265 263 262 261 261 261 261 259
276 275 274 274 274 274 274 273 273 273 273 273 273 273 273 272 272 272 271 270 270 270 270 269 268 268 267 264 264 264 264 262 262 262 262 262 263 262 263 263 263 263 263 261 258 256 255 254 254 254 255 255 254 255 256 256 254 252 251 252 255 256 258 263 264 266 267 267 267 265 263 261 259 257
275 274 274 273 273 273 273 273 273 273 273 274 274 273 273 272 272 272 271 270 269 269 269 268 267 267 266 264 264 264 264 264 262 261 262 263 263 262 260 259 258 257 258 258 258 256 254 254 255 256 254 254 252 251 255 253 252 253 253 252 252 251 255 256 257 261 262 263 264 265 266 267 267 267
274 274 274 274 273 274 274 274 274 274 274 274 274 273 273 273 272 272 271 270 270 269 268 268 266 266 266 264 264 264 265 266 265 264 263 262 261 262 261 260 260 259 259 259 258 256 254 252 253 254 253 252 251 253 255 255 254 253 252 251 252 252 253 252 253 255 256 255 260 264 265 266 266 267
Wind_Speed
11 10 11 11 9 8 7 6 6 7 6 7 10 10 13 10 10 8 8 9 9 6 8 6 7 9 7 7 5 6 6 7 7 4 4 4 3 6 9 9 9 9 8 7 7 7 7 7 6 6 6 7 8 9 10 10 11 12 14 14 15 16 17 17 18 19 19 19 20 21 22 23 23 23
10 10 9 8 8 7 8 8 7 7 8 8 9 9 7 9 11 8 10 10 8 4 5 6 5 8 9 7 6 6 7 8 8 5 5 4 3 7 9 9 9 9 9 8 8 9 9 8 7 7 7 8 8 9 9 10 11 13 14 15 14 15 16 17 18 18 18 19 20 22 22 23 24 24
9 10 11 8 8 7 8 7 7 7 8 8 8 8 6 7 7 10 7 5 5 6 8 8 5 8 10 7 6 5 6 7 8 6 5 4 7 9 6 9 9 9 9 9 9 10 10 9 8 8 8 8 8 9 9 10 12 13 13 13 14 15 16 16 16 17 17 19 20 22 22 23 24 24
10 11 12 10 9 7 7 7 7 8 7 7 8 8 7 6 5 8 7 7 6 6 5 8 8 6 8 8 8 7 6 6 9 5 5 5 7 5 4 7 9 9 9 10 10 10 10 9 9 9 8 8 8 9 9 10 11 12 13 13 14 14 15 16 16 16 17 18 20 21 22 23 23 24
10 12 12 11 9 8 9 8 7 7 7 7 7 7 6 6 5 7 6 6 3 1 1 3 6 5 6 6 8 8 6 5 5 5 5 4 4 4 5 4 8 10 10 11 11 11 10 10 10 9 8 7 8 9 10 10 11 12 12 13 13 13 14 15 15 16 17 19 20 21 22 23 23 24
10 11 12 11 9 8 10 9 9 8 8 8 8 7 8 8 7 6 6 4 6 7 1 2 3 4 5 6 6 9 8 7 4 5 5 3 4 4 5 5 5 10 11 12 13 12 11 11 11 10 8 8 8 9 10 10 11 12 12 12 12 12 13 14 15 17 18 20 20 21 22 23 23 24
11 11 12 12 10 7 8 8 8 7 8 7 9 9 7 8 8 7 5 6 4 8 6 4 5 6 6 7 7 7 6 5 5 5 5 5 4 4 5 5 5 9 12 14 13 12 11 11 11 9 9 9 9 9 9 10 11 12 12 12 12 12 14 14 16 18 19 20 21 21 22 23 24 24
13 14 12 11 11 10 10 9 8 7 7 8 8 8 7 7 8 7 5 5 5 5 8 6 7 6 7 6 2 4 4 5 4 5 4 3 4 5 5 5 5 7 13 14 13 12 11 11 11 10 10 9 10 10 10 10 11 13 13 13 12 13 14 15 17 18 20 20 21 22 23 23 24 24
13 13 14 13 12 11 12 9 9 8 10 8 8 9 8 7 7 5 5 5 4 7 8 5 2 4 3 2 3 4 6 4 3 2 4 4 5 5 5 5 5 8 14 15 14 13 12 11 11 10 9 10 10 10 9 10 12 13 14 13 13 14 15 16 18 19 20 20 20 21 22 23 24 24
13 13 12 11 13 14 14 12 11 10 12 9 9 9 8 7 7 7 5 5 5 6 6 7 5 4 6 3 3 4 5 5 4 4 4 3 4 5 5 6 5 4 5 4 5 8 9 9 11 11 10 10 10 10 9 11 13 14 14 14 14 14 15 17 18 19 19 19 20 21 22 23 23 23
13 13 12 12 13 15 15 14 14 13 12 11 12 11 10 8 9 8 7 7 7 7 6 3 4 6 4 4 5 3 5 4 4 6 3 6 5 6 6 7 4 4 6 7 11 9 7 8 7 8 10 9 9 9 10 11 13 14 14 14 14 14 16 17 18 19 19 19 20 21 21 22 23 23
13 14 13 13 14 15 15 15 15 15 14 11 11 9 9 9 10 9 8 7 7 7 6 5 6 4 5 3 2 3 4 3 4 6 7 8 6 6 5 6 5 3 4 6 5 6 6 5 6 7 5 6 8 8 8 10 12 13 13 14 15 15 16 17 18 19 19 19 19 20 21 21 22 23
14 13 13 12 14 16 18 20 18 18 16 14 13 10 11 11 11 9 7 7 7 5 5 4 3 5 4 5 6 5 6 9 11 4 7 7 7 2 2 4 4 5 5 5 4 4 4 4 5 2 2 2 3 4 8 8 11 12 13 14 15 15 16 17 18 18 17 18 19 20 20 21 21 22
13 14 13 13 19 20 20 19 19 20 20 19 17 16 14 13 11 10 10 8 7 7 7 7 7 6 7 8 9 9 9 5 2 3 5 7 5 2 4 4 5 5 5 6 6 4 2 4 4 2 4 2 2 3 4 4 6 9 13 15 15 15 16 18 17 17 17 18 20 20 20 21 22 22
15 13 13 12 14 17 16 16 21 21 21 20 17 17 18 17 16 13 11 9 9 9 8 6 6 7 8 9 7 9 6 5 7 7 6 7 4 5 4 6 4 1 6 5 3 3 2 4 5 3 4 3 4 4 5 8 10 12 13 15 15 16 17 17 16 15 17 19 19 20 20 21 21 22
13 14 13 12 10 13 15 15 16 17 20 20 17 14 13 13 13 15 15 11 8 8 7 7 9 8 9 8 7 7 5 7 5 6 6 7 7 6 6 5 4 3 5 5 2 4 2 3 5 4 5 4 4 4 7 9 10 13 14 14 15 16 16 15 14 16 18 19 19 19 20 21 22 22
14 13 12 12 11 11 18 15 12 13 13 15 17 18 19 17 14 13 13 14 14 11 9 10 9 10 9 7 8 8 7 5 6 5 6 6 6 6 6 6 3 3 4 3 3 4 4 5 4 5 5 4 3 4 7 10 11 13 14 14 15 15 14 13 14 17 18 18 18 19 20 21 22 22
15 15 14 13 12 11 12 12 12 12 12 13 11 11 11 10 12 13 12 12 11 11 11 10 10 11 8 9 8 6 7 8 6 6 7 5 5 6 8 3 4 2 4 5 1 3 3 5 4 5 5 3 4 4 6 10 12 13 14 14 13 12 11 12 16 18 18 17 18 19 20 21 21 21
15 15 15 15 15 14 14 13 15 15 14 13 11 10 10 10 10 8 8 8 8 8 7 9 11 7 8 8 4 6 7 8 6 7 6 7 6 2 1 1 1 1 2 3 2 5 1 1 3 4 5 4 5 4 6 10 12 13 13 12 10 9 11 15 17 17 17 17 18 19 20 21 21 21
12 12 13 13 13 13 15 17 19 16 13 13 13 12 10 8 7 7 6 8 8 9 8 8 7 6 7 8 6 7 6 5 4 4 5 4 4 3 3 7 2 3 4 4 5 2 2 3 3 3 4 4 4 4 3 8 12 11 10 8 7 9 12 16 17 16 16 17 18 19 20 20 21 21
11 12 13 13 13 14 14 16 21 19 14 13 14 13 11 8 7 6 5 8 11 12 11 10 9 9 10 12 12 12 12 8 7 6 4 6 5 4 6 5 3 5 4 4 5 3 4 3 5 4 3 5 4 4 5 3 5 8 7 5 7 10 15 16 16 16 16 17 18 19 20 21 20 21
14 16 21 17 14 13 12 17 21 21 16 13 13 12 11 9 8 6 5 4 5 8 9 10 12 12 12 13 13 13 13 14 11 8 9 5 7 7 7 7 4 3 3 6 6 3 5 2 2 2 2 0 2 4 4 3 4 4 2 5 8 12 15 15 15 15 16 17 18 19 20 20 20 12
10 10 12 17 14 12 12 20 21 20 14 12 12 12 11 10 9 9 8 8 7 5 5 5 6 7 9 8 7 7 13 15 12 10 7 6 7 7 6 5 1 3 4 7 8 5 3 2 2 3 3 3 2 1 1 1 2 1 1 2 4 12 13 13 14 15 16 17 18 19 20 20 17 10
11 11 9 12 12 12 14 19 21 20 18 13 10 10 10 10 10 6 8 8 8 8 9 8 6 7 4 4 3 4 5 6 3 8 6 7 8 7 6 6 6 7 4 3 10 7 3 4 3 3 5 4 4 1 0 2 3 3 1 2 3 7 10 10 10 14 16 16 17 18 19 18 17 10
11 9 9 7 13 16 18 19 20 20 18 13 11 11 10 10 5 9 7 8 9 7 7 6 6 6 5 4 4 5 5 6 4 4 5 7 7 7 7 6 7 7 4 5 11 5 4 3 2 2 1 2 1 1 2 3 3 3 4 4 4 5 4 4 4 6 10 14 15 18 18 17 18 13
8 9 8 9 14 20 19 19 20 20 19 17 9 9 11 11 12 9 7 6 7 6 6 6 6 5 6 6 6 6 6 5 5 4 4 5 7 7 7 8 8 7 7 6 15 8 5 2 6 4 2 2 4 4 3 2 3 5 4 3 4 5 4 4 4 5 5 4 6 10 13 18 17 16
10 8 9 10 19 20 21 21 21 20 21 16 10 14 15 14 14 10 6 7 7 6 6 6 7 6 6 7 7 7 6 5 5 5 5 6 6 6 6 7 7 8 6 4 5 6 6 4 4 7 6 3 4 2 4 3 4 0 2 4 4 5 4 4 5 5 5 5 6 15 15 15 15 16
7 8 9 10 18 19 21 22 21 20 17 11 15 16 17 16 13 8 7 7 8 7 7 7 7 7 7 7 7 7 6 5 5 6 6 6 5 4 4 4 4 3 4 5 5 6 6 6 4 4 4 5 5 6 7 3 1 3 3 4 4 5 5 4 4 5 4 4 5 6 7 7 6 8
10 11 15 18 21 20 20 20 18 16 17 18 18 19 19 15 8 8 8 8 7 8 9 8 7 7 8 8 6 5 5 5 5 3 3 3 3 3 3 3 3 3 2 3 4 4 4 5 5 4 3 3 5 4 3 5 2 2 3 4 5 2 3 5 5 5 4 4 6 7 7 7 7 6
13 16 17 20 20 19 18 14 11 10 10 18 19 18 17 11 9 9 9 8 9 10 8 8 9 9 7 6 6 7 6 6 6 6 5 5 4 4 4 3 1 0 0 1 2 3 4 4 3 4 3 3 4 5 4 4 5 3 3 5 7 5 5 4 3 4 4 5 6 7 8 7 7 6
12 15 15 13 14 10 14 13 12 10 10 10 11 9 10 9 10 9 10 11 11 9 8 8 7 7 7 6 6 7 6 7 6 6 6 6 6 5 4 5 4 3 2 0 0 0 0 1 2 4 4 3 3 5 6 3 4 3 5 5 2 5 3 3 5 4 3 5 5 6 7 8 7 6
9 10 10 12 11 9 10 10 7 8 8 9 9 9 9 9 9 10 10 8 7 7 7 6 6 6 7 8 8 7 7 7 7 6 6 6 6 5 4 3 4 4 4 3 2 1 1 1 2 2 3 4 6 4 1 3 5 6 7 4 5 6 4 5 5 5 5 3 4 5 6 8 8 7
8 9 9 9 9 9 10 9 9 9 9 9 9 10 9 8 8 8 9 10 9 9 8 9 9 8 7 7 7 7 7 7 7 5 6 6 6 4 5 6 5 4 5 5 3 1 0 1 0 2 4 3 3 3 4 4 5 5 6 7 4 6 4 5 4 5 5 3 5 5 5 7 9 7
8 9 9 9 10 10 9 10 10 10 9 9 9 8 9 9 9 9 9 9 9 8 9 8 8 8 8 7 7 7 7 6 5 6 8 6 5 6 6 6 5 5 4 5 5 3 1 1 1 2 2 1 1 3 5 5 6 5 6 5 5 6 5 3 5 4 3 4 5 7 5 6 8 7
11 10 11 10 10 10 10 10 10 10 10 10 10 9 10 9 10 10 9 9 8 8 8 8 8 7 8 7 7 7 6 7 6 5 4 5 5 6 6 6 5 5 6 4 4 3 2 2 3 1 0 2 2 4 7 9 3 7 4 6 5 5 5 3 3 3 3 4 3 7 8 5 7 7
10 10 11 11 11 11 11 11 10 10 10 10 10 10 10 10 10 10 10 9 8 8 8 8 7 7 7 7 6 6 6 6 5 6 6 5 5 5 4 5 5 4 5 5 5 2 3 4 5 3 2 2 2 4 5 9 13 7 5 4 2 3 3 3 3 2 3 5 4 4 7 9 8 8
11 10 11 11 10 10 11 10 10 10 10 10 10 10 11 10 10 9 8 9 8 8 8 7 7 6 6 6 6 6 6 6 6 5 6 5 5 6 5 4 5 5 4 5 4 3 5 5 4 5 3 3 3 6 6 1 7 11 8 6 5 3 3 2 2 4 4 4 6 4 7 8 8 8
10 10 10 9 9 10 9 8 8 9 9 9 9 9 9 8 7 7 7 8 8 7 8 8 7 7 7 7 6 5 5 5 5 6 6 6 6 5 6 6 5 5 6 5 4 5 6 6 6 5 5 6 5 6 3 3 1 5 7 7 6 4 1 2 4 5 6 4 6 6 5 7 7 7
10 11 12 11 10 9 10 9 9 10 9 9 9 9 9 8 7 7 8 9 8 8 7 7 7 7 7 7 6 7 6 5 6 6 6 6 6 6 6 6 5 4 4 4 3 4 4 5 6 6 7 6 7 5 4 4 4 5 7 9 3 3 2 3 5 5 5 6 6 5 6 7 10 16
11 10 9 9 9 9 9 8 9 9 9 9 9 8 8 8 8 8 8 8 8 7 7 6 6 6 6 6 6 5 6 7 7 6 6 6 6 6 6 5 6 5 4 5 4 5 6 6 6 8 7 8 4 1 2 1 1 3 5 9 13 8 5 3 3 3 6 6 6 6 7 7 7 5
9 9 9 8 8 8 9 9 8 8 8 8 8 7 8 7 8 8 7 7 6 7 6 6 6 7 7 6 6 7 7 6 6 6 6 6 6 7 7 6 4 4 5 5 6 5 8 8 7 7 5 2 4 3 1 1 5 3 3 6 6 6 8 8 5 5 6 8 8 7 6 7 7 4
9 9 7 7 8 8 8 8 8 8 8 8 8 8 8 8 7 10 9 9 8 7 6 6 6 6 6 6 6 6 7 7 6 6 6 5 5 5 7 6 5 5 5 6 6 7 3 1 4 3 5 5 3 3 5 5 7 5 3 4 6 6 7 9 12 12 9 7 6 5 5 6 4 5
7 7 7 7 6 7 7 8 8 8 8 8 8 8 8 8 8 9 8 8 7 7 6 6 6 6 6 6 6 6 7 6 6 6 6 5 6 6 6 6 6 6 6 6 4 3 2 3 4 5 4 6 4 4 6 6 4 3 3 4 6 7 7 8 10 14 15 15 13 9 5 5 5 5
6 6 5 5 6 6 7 7 7 7 8 8 8 8 9 9 9 8 7 7 7 7 6 7 6 7 7 6 6 6 6 6 6 6 6 6 6 6 5 5 4 4 4 4 3 1 2 2 3 5 4 5 3 3 6 3 4 5 5 3 3 4 7 8 9 9 7 5 8 9 10 11 11 14
5 5 5 5 6 6 6 7 7 8 8 8 8 8 8 8 8 7 7 7 7 7 7 7 7 7 7 6 7 7 6 6 6 6 6 6 5 6 5 5 4 4 4 4 4 2 2 2 0 1 1 2 3 4 4 3 4 3 3 2 5 4 5 4 5 10 10 6 2 6 10 13 14 15
Wind_Direction
195 200 195 195 192 198 189 193 187 180 166 172 173 173 169 169 145 167 205 225 216 225 194 190 215 196 200 203 194 193 210 214 213 206 193 205 217 245 254 258 261 265 271 274 270 271 275 281 292 302 305 308 312 319 327 331 330 324 322 324 326 326 325 325 325 325 323 324 324 323 323 323 323 323
195 198 196 198 196 189 184 196 188 176 177 172 181 185 181 161 161 167 179 217 194 197 196 202 190 185 202 194 194 194 209 215 210 196 201 207 213 239 250 257 263 271 276 278 275 270 271 275 285 295 297 302 307 319 327 330 324 320 323 325 326 324 324 324 324 322 322 322 321 321 322 321 321 321
189 193 197 195 199 179 192 189 183 184 173 181 180 185 164 187 160 161 169 180 236 154 185 212 198 183 193 185 186 197 208 214 207 196 202 210 218 232 245 254 263 269 273 275 274 269 268 271 279 287 293 297 305 315 324 323 320 324 325 325 322 323 322 321 320 319 320 321 320 320 320 320 320 320
193 190 194 194 192 184 181 182 183 181 186 175 177 178 175 173 162 152 163 180 188 197 184 186 186 179 175 174 186 203 211 215 212 192 203 212 216 233 230 251 258 266 269 271 270 271 273 275 277 279 286 296 304 310 316 317 324 326 325 323 325 324 321 319 317 318 319 318 319 319 319 319 319 319
192 192 191 190 193 175 179 185 178 179 177 176 182 172 167 168 170 160 169 164 137 43 7 144 172 160 148 181 194 200 204 209 217 202 206 207 214 223 230 236 251 259 266 265 265 267 269 272 271 272 280 295 300 305 308 320 324 324 323 325 326 325 323 319 316 317 317 317 317 317 317 317 318 317
194 191 187 188 186 182 187 177 181 176 170 175 170 179 176 176 181 192 150 164 152 174 125 113 54 140 174 185 181 195 197 213 199 214 216 213 209 222 227 235 244 252 257 259 259 261 264 268 272 276 285 294 300 302 310 317 320 321 323 325 326 325 320 317 316 316 317 317 317 316 316 317 317 316
189 190 191 187 177 176 184 186 184 169 174 173 177 180 182 177 183 193 183 139 162 165 181 145 153 169 176 196 187 198 205 199 189 202 213 216 216 222 221 226 235 245 251 254 257 260 262 266 272 279 282 290 295 298 303 311 316 320 321 321 323 323 320 317 314 315 317 317 316 316 316 317 316 315
189 194 190 186 176 174 182 182 179 179 171 175 179 176 182 178 181 185 179 171 138 162 151 196 182 179 169 210 163 173 183 189 200 205 218 207 220 225 224 223 234 243 250 255 258 260 260 263 271 278 281 285 293 298 300 307 316 321 323 323 322 320 318 313 313 317 317 316 316 316 317 317 316 316
196 195 194 180 174 175 183 183 182 176 178 181 175 178 177 181 173 166 170 153 138 148 174 155 155 150 189 153 154 163 173 210 214 224 215 214 218 232 230 225 233 243 250 254 257 257 256 259 269 276 281 290 295 295 296 306 316 324 326 324 317 315 312 310 313 316 316 315 315 316 317 318 318 318
198 198 196 183 179 181 184 184 184 180 181 174 180 178 179 175 162 164 157 144 143 151 153 155 146 174 180 176 203 186 186 175 209 241 250 251 233 225 250 237 226 221 231 246 257 257 259 267 270 274 284 291 292 289 296 309 318 325 323 316 313 311 308 309 313 315 315 314 314 316 319 319 319 319
200 201 199 189 187 187 189 183 183 181 179 179 185 184 177 169 164 164 163 157 148 148 141 142 174 169 200 178 194 194 184 202 195 205 230 261 227 207 214 250 235 206 236 243 244 237 229 242 252 262 267 274 282 290 299 307 313 313 309 307 306 304 304 309 313 314 313 312 313 317 318 318 319 319
203 203 201 194 192 192 192 187 186 179 179 180 183 181 168 169 167 166 159 156 153 151 156 164 169 185 165 175 95 91 124 192 263 218 197 233 238 210 212 221 236 240 206 243 248 250 250 259 266 276 301 296 288 299 309 307 304 305 304 302 301 301 306 310 313 313 312 311 314 317 319 318 319 320
204 205 203 198 196 198 197 193 185 185 178 172 179 179 173 172 170 160 162 161 154 154 156 159 122 163 190 196 170 179 185 199 213 184 183 230 249 230 221 254 221 215 221 240 231 240 190 229 255 237 287 280 299 303 296 298 304 302 298 298 301 303 308 311 312 312 311 314 317 319 318 318 319 320
204 205 204 204 199 198 198 193 190 188 184 183 180 175 175 171 165 163 162 162 166 163 169 189 174 182 212 205 201 201 215 202 136 147 178 216 231 160 247 280 246 204 204 226 240 241 198 182 235 195 227 247 254 226 265 263 271 281 291 297 301 305 309 312 312 312 314 317 319 318 317 318 320 321
202 206 205 203 200 199 198 195 192 189 188 187 187 181 179 173 165 160 163 168 168 169 186 181 175 199 214 220 199 212 203 185 198 203 189 213 187 201 220 257 312 217 184 218 201 268 221 166 203 227 231 229 230 240 241 266 281 286 292 297 302 305 310 312 311 313 317 320 319 318 318 319 320 322
201 202 202 202 197 197 196 192 192 191 190 187 182 170 173 175 171 165 160 163 165 172 174 174 201 195 216 220 188 207 180 211 195 204 197 205 204 217 218 227 218 242 164 185 183 250 267 175 197 226 239 224 224 235 249 271 283 291 295 299 302 307 311 310 311 316 320 320 319 319 319 319 321 321
203 200 200 201 200 200 196 192 187 183 188 188 182 179 182 180 171 173 162 157 168 175 177 190 199 201 207 206 219 196 187 163 191 185 205 213 213 213 224 228 228 243 177 137 221 240 243 171 207 209 244 219 221 245 273 279 285 288 294 302 305 308 309 309 317 321 320 319 319 319 320 321 321 321
202 199 197 197 198 194 190 191 184 180 180 178 177 176 178 178 182 174 165 167 156 162 182 189 203 217 182 205 209 182 153 153 187 179 212 199 206 212 224 209 204 230 173 180 175 291 237 193 176 222 248 203 222 232 242 266 280 289 297 304 306 305 307 314 319 321 320 320 321 321 322 323 322 321
203 199 200 199 196 188 186 188 184 182 179 174 171 167 173 178 180 178 180 179 175 181 195 196 212 202 191 208 171 162 179 188 192 186 190 191 196 179 72 47 112 190 202 157 145 251 258 164 160 223 225 214 225 222 251 272 281 290 300 306 304 303 311 317 320 321 320 321 323 323 323 323 322 321
206 204 202 200 197 192 192 190 182 178 167 169 168 167 171 173 170 185 190 185 186 190 197 204 206 192 186 184 177 170 172 183 141 95 71 77 94 130 196 227 268 199 249 186 175 247 268 226 181 238 206 177 211 239 237 259 279 294 301 297 297 307 316 319 320 321 322 324 325 325 324 323 322 322
202 202 201 200 200 195 197 185 179 174 158 166 169 168 168 167 167 189 183 199 205 199 203 205 198 185 186 188 188 186 184 176 156 123 135 192 155 163 226 248 197 242 200 224 188 190 254 232 196 256 225 192 209 229 245 250 276 286 284 290 302 311 318 319 319 321 323 325 326 324 323 322 322 324
201 201 198 197 196 193 191 183 180 171 163 166 166 164 161 165 180 192 174 174 197 205 204 198 197 196 196 196 196 199 203 198 164 164 201 191 152 208 209 235 206 249 202 216 181 162 227 191 201 229 274 40 246 211 229 235 250 255 330 303 310 313 315 315 318 320 322 324 325 324 323 323 325 325
209 206 198 195 193 189 180 179 178 167 160 165 165 162 159 175 187 198 174 180 180 199 199 212 193 201 200 195 194 207 215 218 187 186 193 156 173 200 209 208 189 274 233 214 172 189 256 155 251 135 347 323 261 139 319 242 170 170 186 315 318 305 309 313 317 319 320 323 324 323 322 323 326 321
202 194 191 190 180 172 171 177 174 167 164 161 159 154 168 173 200 181 169 186 189 199 202 208 200 204 185 164 159 185 208 219 164 185 187 176 184 198 205 201 199 228 221 210 170 201 248 174 224 192 189 238 292 315 125 262 210 236 222 253 279 290 299 306 313 312 315 321 324 323 322 322 324 321
196 186 182 176 172 167 172 177 175 166 164 155 156 167 174 187 160 130 167 189 185 195 198 198 195 192 172 168 167 183 195 203 188 170 185 189 192 193 199 210 219 240 210 181 184 181 220 182 197 140 251 207 220 135 217 184 250 232 238 248 260 279 278 287 296 299 308 319 321 320 318 317 322 325
193 183 176 177 177 169 170 172 170 168 168 163 157 179 181 177 161 159 170 169 175 183 179 179 182 177 175 183 189 198 202 207 211 199 197 196 198 206 198 201 216 237 229 203 190 191 175 212 186 174 177 156 259 207 242 230 209 232 264 261 247 257 267 283 292 289 302 303 308 307 308 317 323 322
189 174 173 171 171 165 167 169 169 169 173 172 180 180 187 186 181 154 155 161 167 172 177 175 186 184 183 190 201 202 206 209 202 209 213 211 202 210 212 213 212 221 218 180 206 181 190 205 171 190 218 207 240 216 215 223 279 81 279 249 257 267 261 271 280 281 296 305 297 306 313 314 317 320
180 173 173 170 174 166 166 166 168 172 176 181 185 186 190 186 179 153 157 165 171 170 172 184 187 193 195 193 199 202 197 199 206 208 208 211 200 198 211 217 224 215 176 181 196 196 194 202 192 210 203 198 222 217 265 261 154 186 232 261 245 267 266 253 276 281 293 300 292 300 298 302 310 316
186 179 171 171 174 166 163 166 171 178 186 188 195 196 189 178 177 168 169 169 162 176 189 191 191 196 197 196 192 184 188 206 212 199 221 211 188 156 152 160 167 175 155 168 177 200 189 196 201 180 190 207 225 240 219 255 180 233 254 299 298 260 287 278 275 278 290 295 293 295 291 294 304 306
167 167 165 167 167 164 169 173 182 188 190 199 199 197 185 179 183 173 171 171 177 192 189 188 195 197 184 190 192 193 197 197 205 196 212 197 208 172 172 166 235 128 135 160 169 178 194 199 186 169 187 207 211 238 241 251 268 251 257 255 272 303 265 244 254 277 287 293 291 292 292 291 293 300
161 161 162 170 171 170 175 178 184 186 186 191 197 194 188 187 186 178 181 184 188 189 187 190 191 184 186 182 187 202 192 201 209 197 200 196 210 190 192 186 229 227 261 168 47 92 85 130 141 152 187 215 207 224 238 238 265 270 267 256 252 261 275 300 300 291 289 287 282 284 289 294 293 287
161 157 154 160 168 171 181 188 186 186 184 189 190 193 191 189 185 181 177 172 186 188 180 179 174 180 182 192 196 191 198 203 209 197 192 193 205 190 150 149 216 210 248 289 304 338 121 160 169 220 207 200 213 239 174 193 216 249 267 265 249 270 271 276 282 289 291 289 284 276 285 293 295 293
146 150 163 171 173 180 184 186 188 186 186 192 192 191 189 181 178 175 179 187 190 183 176 186 186 187 186 192 190 190 198 205 198 188 189 198 185 171 166 198 191 176 200 253 273 318 105 180 34 182 222 245 244 183 177 239 249 233 252 266 271 268 273 268 261 279 304 301 276 273 277 286 288 291
160 170 175 183 182 183 184 188 189 189 187 187 187 192 190 182 180 185 189 190 187 181 186 186 182 182 179 186 183 188 194 195 188 189 187 188 174 169 187 190 204 193 183 209 234 247 99 70 64 22 27 28 337 208 197 215 241 252 242 263 251 263 268 268 280 279 281 262 286 295 284 283 287 289
181 183 186 189 189 189 188 191 191 186 185 187 187 188 187 185 189 190 189 190 178 178 184 185 185 178 182 187 181 187 191 186 187 183 186 165 174 183 183 191 193 192 190 201 229 236 145 146 112 65 6 6 2 320 226 199 208 245 267 258 241 245 268 270 274 285 289 292 295 289 289 277 283 287
192 191 192 191 192 189 190 195 187 185 186 186 187 184 186 190 190 188 191 181 171 178 179 182 183 180 179 178 179 185 183 179 179 177 169 176 178 180 175 193 187 188 179 196 226 207 153 173 154 165 212 273 2 309 325 220 194 206 214 259 226 193 244 250 269 260 278 280 274 272 288 297 292 297
191 195 195 195 192 189 194 189 187 189 188 188 188 188 191 191 190 191 183 172 174 180 181 171 180 173 169 166 171 177 176 175 182 183 185 181 182 178 182 196 188 189 180 217 198 189 170 180 181 176 172 214 210 252 245 306 245 224 184 240 260 220 234 244 289 301 272 266 278 257 270 281 287 289
194 191 195 195 194 194 193 189 185 188 190 190 189 188 192 191 179 176 164 170 179 176 180 180 177 163 166 158 161 175 175 182 175 183 190 178 178 189 189 192 196 190 200 213 186 195 186 178 182 188 183 203 238 246 271 297 338 286 220 195 223 252 178 249 289 274 283 258 258 268 262 270 279 282
194 192 194 194 193 189 190 191 186 189 187 187 189 190 185 179 171 165 175 180 172 174 177 173 172 169 162 163 166 168 175 185 191 191 188 192 191 189 196 191 198 204 169 215 196 192 172 190 196 189 191 198 211 219 185 185 231 252 291 277 270 284 242 216 259 266 263 281 279 274 262 268 283 293
199 195 195 191 191 186 188 182 186 187 185 190 190 186 180 181 176 175 176 177 172 171 173 170 155 152 165 162 164 166 179 192 197 196 194 195 197 192 192 192 190 181 171 202 213 215 200 216 203 201 200 213 224 159 164 178 228 284 289 285 277 266 243 197 237 268 288 287 292 289 290 300 285 278
191 193 196 190 185 182 185 187 184 180 184 183 183 185 183 176 173 179 173 169 164 168 164 159 163 168 171 167 168 166 188 203 202 200 196 194 195 193 201 191 191 178 185 211 210 218 219 223 214 214 199 138 105 91 33 323 281 264 276 283 297 301 296 300 298 295 286 293 289 283 279 286 294 308
191 194 187 183 187 185 180 182 177 179 178 176 176 176 172 172 174 172 173 177 170 166 160 163 164 166 172 170 169 173 186 194 194 200 194 187 195 202 202 193 189 195 188 212 208 225 236 149 175 177 130 121 127 154 225 226 260 270 263 289 300 301 309 304 301 297 293 288 286 278 285 295 294 275
191 191 190 188 179 177 178 177 176 176 176 171 172 168 164 165 164 170 166 170 167 165 170 165 163 169 176 168 171 179 185 192 187 189 187 189 191 194 201 202 198 200 201 217 218 202 138 113 120 127 148 158 196 169 226 241 239 251 281 300 290 310 310 306 304 301 299 296 293 289 281 273 286 283
185 185 182 175 176 177 175 173 173 174 171 172 169 165 166 167 171 172 165 165 165 169 167 166 166 171 175 169 167 177 189 188 175 178 185 192 196 198 203 211 211 209 205 195 194 161 118 130 161 150 145 206 182 167 237 246 259 243 242 250 284 324 306 315 317 309 298 282 294 295 297 296 292 292
171 172 168 170 173 173 172 170 169 169 169 166 167 168 165 164 165 164 165 164 166 168 168 170 170 173 169 163 164 182 193 190 184 186 182 182 186 196 199 195 194 189 193 188 171 218 169 155 138 127 176 212 169 199 231 202 234 254 260 272 286 290 286 304 313 315 314 310 253 292 309 309 307 306